{"data":{"norad_id":45425,"epoch":"2026-09-20T00:29:52.592640Z","epoch_age_seconds":59598,"freshness":"FRESH","line1":"1 45425U 20020B   26263.02074760  .00004735  00000+0  13307-1 0  9992","line2":"2 45425  87.8994   2.1590 0002959 111.2969 248.8476 13.11470254315161","mean_motion":13.11470254,"eccentricity":0.0002959,"inclination_deg":87.8994,"raan_deg":2.159,"arg_perigee_deg":111.2969,"mean_anomaly_deg":248.8476,"bstar":0.013307,"rev_number":31516,"period_min":109.80043166118,"perigee_km":1215.2293168734,"apogee_km":1219.7244011551,"semimajor_km":7595.6138590142,"source":"CELESTRAK","updated_at":"2026-09-20T09:00:44.552162Z"}}